Regional Weather Roundup
Issued by NWS

Home | Current Version | Previous Version | Graphics & Text | Print | Product List | Glossary On
Versions: 1 2 3 4 5 6 7 8 9 10 11 12 13 14 15 16 17 18 19 20 21 22 23 24 25 26 27 28 29 30 31 32 33 34 35 36 37 38 39 40 41 42 43 44 45 46 47 48 49 50
000
ASUS43 KOAX 160602
RWRNE

WEATHER ROUNDUP FOR NEBRASKA
NATIONAL WEATHER SERVICE OMAHA NE
100 AM CDT WED AUG 16 2017

NOTES: SATELLITE DATA IS BEING USED TO AUGMENT CLOUD COVER ABOVE
       12000 FEET.
       "FAIR" INDICATES FEW OR NO CLOUDS BELOW 12,000 FEET WITH NO
       SIGNIFICANT WEATHER AND/OR OBSTRUCTIONS TO VISIBILITY.


NEZ001>004-019>022-054>056-160700-
NEBRASKA PANHANDLE

CITY           SKY/WX    TMP DP  RH WIND       PRES   REMARKS
SCOTTSBLUFF    CLOUDY    61  56  83 NW3       29.98R
6HR MIN TEMP:  60; 6HR MAX TEMP:  67; 6HR PCP:  0.07;

ALLIANCE       CLOUDY    60  58  92 NW6       29.97R
6HR MIN TEMP:  60; 6HR MAX TEMP:  75; 6HR PCP:  0.10;

CHADRON        MOCLDY    63  60  90 CALM      29.95R
6HR MIN TEMP:  58; 6HR MAX TEMP:  68; 6HR PCP:  0.15;

GORDON         DRIZZLE   62  60  93 N6        29.93S
6HR MIN TEMP:  59; 6HR MAX TEMP:  79; 6HR PCP:  0.15;

KIMBALL        CLOUDY    59  55  86 NW6       29.99F
SIDNEY         CLOUDY    60  57  89 NW12      29.96F
6HR MIN TEMP:  60; 6HR MAX TEMP:  80; 6HR PCP:  0.10;

$$

NEZ057>060-069>072-079>082-160700-
SOUTHWEST NEBRASKA

CITY           SKY/WX    TMP DP  RH WIND       PRES   REMARKS
NORTH PLATTE   LGT RAIN  63  61  93 NE24G33   29.90F
6HR MIN TEMP:  61; 6HR MAX TEMP:  82; 6HR PCP:  1.03;

IMPERIAL       RAIN      62  60  93 N24G32    29.91F
6HR MIN TEMP:  62; 6HR MAX TEMP:  87; 6HR PCP:  0.18;

LEXINGTON      CLOUDY    66  63  88 E13       29.88R
MCCOOK         TSTM      66  66 100 N24G40    29.86R VSB 3/4
6HR MIN TEMP:  66; 6HR MAX TEMP:  89; 6HR PCP:  0.46;

OGALLALA       LGT RAIN  63  61  93 NE12      29.93R
$$

NEZ005>010-023>029-035>040-094-160700-
NORTH CENTRAL NEBRASKA

CITY           SKY/WX    TMP DP  RH WIND       PRES   REMARKS
VALENTINE      RAIN      65  60  84 W6        29.93R
6HR MIN TEMP:  63; 6HR MAX TEMP:  78; 6HR PCP:  0.40;

AINSWORTH      RAIN      62  62  98 W13       29.92R
BROKEN BOW     TSTM      63  63 100 E12       29.90R
6HR MIN TEMP:  63; 6HR MAX TEMP:  73; 6HR PCP:  2.24;

O`NEILL        RAIN      65  65  99 NW6       29.92R
ORD            RAIN      65  62  90 E14       29.83F
6HR MIN TEMP:  64; 6HR MAX TEMP:  68; 6HR PCP:  1.56;

THEDFORD       CLOUDY    62  60  96 N3        29.98S
$$

NEZ041-046>049-061>064-073>077-083>087-160700-
SOUTH CENTRAL NEBRASKA

CITY           SKY/WX    TMP DP  RH WIND       PRES   REMARKS
GRAND ISLAND   RAIN      64  64 100 N15       29.88F FOG
6HR MIN TEMP:  64; 6HR MAX TEMP:  74; 6HR PCP:  2.35;

AURORA         TSTM      64  64 100 N21G26    29.87F VSB 1
HASTINGS       HVY RAIN  65  63  93 N14G23    29.89R FOG
6HR MIN TEMP:  65; 6HR MAX TEMP:  86; 6HR PCP:  1.42;

HEBRON         CLOUDY    73  70  91 SE3       29.82F
HOLDREGE       CLOUDY    66  62  85 NE10G23   29.87R
KEARNEY        CLOUDY    64  63  96 E10       29.88F
YORK           LGT RAIN  66  66 100 NE15      29.85S
$$

NEZ011>018-030>034-042>045-160700-
NORTHEAST NEBRASKA

CITY           SKY/WX    TMP DP  RH WIND       PRES   REMARKS
NORFOLK        LGT RAIN  67  64  90 S16G28    29.84F
6HR MIN TEMP:  65; 6HR MAX TEMP:  68; 6HR PCP:  0.44;

ALBION         HVY RAIN  67  65  96 S6        29.90R
BLAIR          RAIN      67  65  94 E8        29.85F
COLUMBUS       TSTM      67  66  97 NW9       29.87S
FREMONT        CLOUDY    67  66  94 SE7       29.86R
TEKAMAH        LGT RAIN  68  63  84 SE20G29   29.78F
6HR MIN TEMP:  67; 6HR MAX TEMP:  71; 6HR PCP:  0.84;

WAYNE          CLOUDY    68  65  91 SW6       29.83S
$$

NEZ050>053-065>068-078-088>093-160700-
SOUTHEAST NEBRASKA

CITY           SKY/WX    TMP DP  RH WIND       PRES   REMARKS
LINCOLN        LGT RAIN  70  65  84 E14G20    29.85S
6HR MIN TEMP:  69; 6HR MAX TEMP:  85; 6HR PCP: TRACE;

OMAHA EPPLEY   MOCLDY    70  65  84 E6        29.85F
6HR MIN TEMP:  69; 6HR MAX TEMP:  83; 6HR PCP:  0.24;

BEATRICE       CLOUDY    77  71  81 SE8       29.84S
FALLS CITY     MOCLDY    75  71  87 E5        29.85S
6HR MIN TEMP:  74; 6HR MAX TEMP:  84;

NEBRASKA CITY  MOCLDY    72  72 100 NE5       29.86F
PLATTSMOUTH    CLEAR     71  66  86 E8        29.87F
$$

NEZ044-045-051>053-067-160700-
OMAHA AREA

CITY           SKY/WX    TMP DP  RH WIND       PRES   REMARKS
OMAHA EPPLEY   MOCLDY    70  65  84 E6        29.85F
6HR MIN TEMP:  69; 6HR MAX TEMP:  83; 6HR PCP:  0.24;

BLAIR          RAIN      67  65  94 E8        29.85F
FREMONT        CLOUDY    67  66  94 SE7       29.86R
MILLARD        MOCLDY    69  67  93 SE5       29.86F
OFFUTT AFB     PTCLDY    71  64  80 E9        29.85F
PLATTSMOUTH    CLEAR     71  66  86 E8        29.87F
WAHOO          FAIR      68  66  96 SE5       29.86R
$$




USA.gov is the U.S. government's official web portal to all federal, state and local government web resources and services.